Location: Boiro
(42.6475°N, 8.8834°W)
Time: 20:52:40
(UTC+02:00)

UKube-1 - Pass Details

Date: 27 April 2024
Orbit: 584 x 591 km, 98.3° (Epoch: 20 May)

Event Time Altitude Azimuth Distance (km) Brightness Sun altitude
Rises 02:49:15 0° 25° (NNE) 2,833 ? -33.3°
Reaches altitude 10° 02:51:44 10° 39° (NE) 1,925 ? -33.3°
Enters shadow 02:52:44 15° 49° (NE) 1,608 ? -33.2°
